Find Kosmos-2303

NORAD ID: 23445 Int'l Des: 1994-086 Owner: VKS Country: RU operational
LEOCIRCULARPOLAR

Live Position

Loading 3D Globe...

About Kosmos-2303

Description loading...

Upcoming Passes

Passes for default location (London). Set your location on the main map for personalized predictions.

Altitude History

Loading altitude history...

Two-Line Element Set

1 23445U 94086E 26104.55484186 .00000008 00000-0 -14576-4 0 9995
2 23445 82.5792 26.5060 0011550 357.3939 175.5721 12.60559569439960
Epoch: Apr 14, 2026 • Age: 5 hours

Current Status

Altitude 1435.3 km
Velocity 7.15 km/s
Sub-Earth Point 81.31°N, 26.23°E
Launch Date Dec 26, 1994
Age 31.2 years
Type other

Technical Details

Classification Payload
Mass 225.00 kg
Dry Mass 225.00 kg
Total Mass 225.00 kg
Length 1.60 m
Diameter 0.80 m
Span 7.00 m
Shape Cyl + Ant
Manufacturer NPOPMR
Bus Type Strela-3
Phase Status In Orbit
Owner/State VKS/RU

Most Searched